User: anonymous   Login
Location: Songkhla
(7.2000°N, 100.6000°E)
Time: 21:58:54
(UTC+07:00)
Language:

CAS-6 - Orbit

View from above orbital plane
View from above orbital plane
View from above satellite
View from above satellite

Ground track
Ground track

The orbit data is extracted from the following two-line orbital elements,

1 44881U 19093C   21215.13888371  .00000098  00000-0  19231-4 0  9994
2 44881  97.9232 293.4576 0016103 137.4375 222.8091 14.81468245 87648
Epoch (UTC): 03 August 2021 03:19:59
Eccentricity: 0.0016103
inclination: 97.9232°
perigee height: 613 km
apogee height: 636 km
right ascension of ascending node: 293.4576°
argument of perigee: 137.4375°
revolutions per day: 14.81468245
mean anomaly at epoch: 222.8091°
orbit number at epoch: 8764

The dashed part of the orbit path shows where the satellite is in the earth's shadow,  

DLR